[[{"header":{"parameterUnit":"m.s-1","parameterCategory":2,"la1":30.2991,"la2":30.254,"lo1":-89.0895,"lo2":-89.0444,"dy":0.0017,"dx":0.0017,"nx":28,"ny":28,"refTime":"2025-11-19T09:00:00:Z","depth":"0","parameterNumber":2,"parameterNumberName":"U-component_of_CURRENTS"},"data":[0,0,0,0,0,0,0,0,0,0,0,0,0,0,0,0,0,0,0,0,0,0,0,0,0,0,0,0,0,0,0,0,0,0,0,0,0,0,0,0,0,0,0,0,0,0,0,0,0,0,0,0,0,0,0,0,0,0,-0.2592,-0.2593,0,-0.2636,-0.2636,-0.2636,-0.2619,-0.2618,-0.2617,-0.2616,-0.2766,-0.2771,-0.2776,0,0,0,0,0,0,0,0,0,0,0,0,0,-0.2507,-0.2509,-0.2592,-0.2593,-0.2593,-0.2635,-0.2636,-0.2637,-0.2619,-0.2618,-0.2616,-0.2615,-0.2764,-0.277,-0.2776,0,0,0,0,0,0,0,0,0,0,0,0,0,-0.2546,-0.2509,-0.2592,-0.259,-0.259,-0.2635,-0.2636,-0.2637,-0.2619,-0.2618,-0.2616,-0.2615,-0.2762,-0.277,-0.2777,-0.2852,0,0,-0.28,-0.2803,0,0,0,0,0,0,0,0,-0.2544,-0.2549,-0.259,-0.259,-0.259,-0.262,-0.2661,-0.2714,-0.2619,-0.2608,-0.2616,-0.2614,-0.2729,-0.2739,-0.2748,-0.2859,-0.2866,-0.28,-0.2805,-0.2808,-0.281,0,0,0,0,0,0,0,-0.2541,-0.2547,-0.2609,-0.259,-0.2591,-0.2591,-0.2595,-0.2671,-0.2678,-0.2608,-0.2607,-0.2613,-0.2729,-0.2741,-0.2752,-0.2868,-0.28,-0.2807,-0.2811,-0.2814,-0.3022,-0.3023,0,0,0,0,0,0,-0.2538,-0.2545,-0.2607,-0.261,-0.2563,-0.2594,-0.2598,-0.2612,-0.2674,-0.2682,-0.2615,-0.2612,-0.2729,-0.2743,-0.2757,-0.2793,-0.2808,-0.2815,-0.2819,-0.3021,-0.3023,-0.3024,0,0,0,0,0,0,-0.2536,-0.2544,-0.2606,-0.2578,-0.2586,-0.2597,-0.2613,-0.2614,-0.2618,-0.2678,-0.2687,-0.2617,-0.2728,-0.2747,-0.2812,-0.2801,-0.2818,-0.2825,-0.302,-0.3022,-0.3023,-0.2903,0,0,0,0,0,0,-0.2534,-0.2543,-0.255,-0.2578,-0.2588,-0.2628,-0.2614,-0.2616,-0.2625,-0.2622,-0.2684,-0.2696,-0.2729,-0.28,-0.2819,-0.2811,-0.2831,-0.3019,-0.3021,-0.3023,-0.2905,-0.29,-0.2895,0,0,0,0,0,-0.2531,-0.2547,-0.2551,-0.2558,-0.2598,-0.2628,-0.2633,-0.2635,-0.2626,-0.2632,-0.2667,-0.2694,-0.2826,-0.2807,-0.2829,-0.2823,-0.3018,-0.302,-0.3023,-0.2907,-0.2901,-0.2895,0,0,0,0,0,0,-0.251,-0.2548,-0.2552,-0.2577,-0.2598,-0.2625,-0.2632,-0.2637,-0.2669,-0.2668,-0.2714,-0.273,-0.2774,-0.2836,-0.2813,-0.2894,-0.2926,-0.2933,-0.2831,-0.2826,-0.2821,-0.2827,-0.2837,0,0,0,0,0,-0.2512,-0.2531,-0.2565,-0.2581,-0.2595,-0.2615,-0.2626,-0.2632,-0.2664,-0.2673,-0.2711,-0.2764,-0.2806,-0.2843,-0.2894,-0.2957,-0.2975,-0.2971,-0.2965,-0.296,-0.2984,-0.2972,-0.2966,-0.3032,-0.3032,-0.3032,0,0,-0.2505,-0.2529,-0.2537,-0.2578,-0.2594,-0.2621,-0.2617,-0.2638,-0.2654,-0.2693,-0.2724,-0.2748,-0.2818,-0.2858,-0.2887,-0.2908,-0.2949,-0.2964,-0.2958,-0.2985,-0.2974,-0.2967,-0.296,-0.3034,-0.3033,-0.3033,0,0,-0.2505,-0.2527,-0.2544,-0.257,-0.2602,-0.2621,-0.2627,-0.2656,-0.266,-0.2704,-0.2714,-0.273,-0.2826,-0.2842,-0.2873,-0.289,-0.2913,-0.2913,-0.2902,-0.2888,-0.2882,-0.2876,-0.2863,-0.2857,-0.292,-0.292,-0.292,0,-0.2493,-0.2525,-0.2552,-0.2581,-0.2599,-0.2621,-0.2645,-0.2665,-0.2705,-0.2714,-0.2708,-0.2779,-0.2815,-0.2851,-0.2841,-0.2873,-0.2876,-0.2902,-0.2875,-0.2871,-0.2867,-0.2855,-0.285,-0.2915,-0.2915,-0.2916,-0.2916,0,-0.2511,-0.2539,-0.2552,-0.2596,-0.2621,-0.2644,-0.268,-0.2697,-0.2703,-0.2716,-0.2738,-0.2762,-0.2806,-0.2804,-0.2829,-0.2827,-0.2837,-0.2849,-0.2871,-0.2851,-0.2842,-0.2839,-0.2907,-0.2909,-0.291,-0.2912,0,0,-0.247,-0.2549,-0.255,-0.2574,-0.263,-0.2651,-0.2687,-0.2721,-0.2736,-0.2748,-0.2759,-0.2782,-0.2774,-0.281,-0.2818,-0.2805,-0.2747,-0.2817,-0.2819,-0.2773,-0.2714,-0.2657,-0.2648,-0.274,-0.274,-0.274,-0.2705,0,-0.2469,-0.2521,-0.2562,-0.2603,-0.2632,-0.2673,-0.2706,-0.2738,-0.2756,-0.2775,-0.2775,-0.2793,-0.2786,-0.2785,-0.2768,-0.2767,-0.2741,-0.2756,-0.2772,-0.2773,-0.2697,-0.2644,-0.2537,-0.2493,-0.2703,-0.2702,-0.2702,0,-0.2461,-0.2501,-0.2543,-0.2611,-0.2626,-0.2654,-0.27,-0.2734,-0.2773,-0.2786,-0.2794,-0.2803,-0.2798,-0.2782,-0.2756,-0.2765,-0.2737,-0.2721,-0.272,-0.2716,-0.2711,-0.2559,-0.248,-0.2458,-0.2698,-0.2698,-0.2698,0,-0.2405,-0.248,-0.2509,-0.2534,-0.2618,-0.2636,-0.2674,-0.2724,-0.2748,-0.2785,-0.2796,-0.2803,-0.2796,-0.2771,-0.2742,-0.2746,-0.2703,-0.2705,-0.2626,-0.2622,-0.2566,-0.2557,-0.2445,-0.267,-0.267,-0.267,-0.267,0,-0.2381,-0.2401,-0.2485,-0.2502,-0.253,-0.2602,-0.2629,-0.2672,-0.2726,-0.2743,-0.2787,-0.2791,-0.279,-0.2771,-0.2743,-0.2672,-0.2699,-0.2618,-0.2604,-0.252,-0.2508,-0.2519,-0.2551,-0.2669,-0.2669,-0.2669,-0.267,0,-0.2303,-0.2367,-0.2399,-0.2482,-0.2504,-0.2517,-0.2593,-0.2612,-0.2681,-0.2704,-0.2714,-0.277,-0.2748,-0.2737,-0.2698,-0.2659,-0.2562,-0.2575,-0.2477,-0.2452,-0.2351,-0.2381,-0.2319,-0.2252,-0.2479,-0.2477,-0.2476,0,-0.2266,-0.2276,-0.2354,-0.2366,-0.2397,-0.2439,-0.2464,-0.2561,-0.2587,-0.2679,-0.2678,-0.2695,-0.268,-0.2622,-0.2554,-0.2485,-0.2486,-0.2355,-0.234,-0.2319,-0.2344,-0.2371,-0.2322,-0.2211,-0.2208,-0.2205,-0.2203,0,-0.2178,-0.2204,-0.2232,-0.2259,-0.2286,-0.2321,-0.2371,-0.2393,-0.2502,-0.2531,-0.2566,-0.2571,-0.2542,-0.2439,-0.237,-0.2312,-0.2297,-0.2294,-0.2291,-0.2139,-0.2146,-0.2083,-0.2275,-0.2177,-0.218,-0.2182,-0.2183,-0.2184,-0.2088,-0.2081,-0.2116,-0.2128,-0.2159,-0.2177,-0.2161,-0.2235,-0.2263,-0.2293,-0.2392,-0.2375,-0.2348,-0.2234,-0.2174,-0.2041,-0.2106,-0.1986,-0.2028,-0.2061,-0.1979,-0.2116,-0.1995,-0.1997,-0.1998,-0.1999,-0.2,0,-0.1965,-0.1974,-0.198,-0.1994,-0.1968,-0.2034,-0.2068,-0.2035,-0.2018,-0.2105,-0.2118,-0.2131,-0.2029,-0.2008,-0.1898,-0.181,-0.176,-0.1772,-0.1783,-0.1746,-0.1864,-0.1833,-0.1648,-0.1648,-0.1648,-0.1648,-0.1648,-0.1648,-0.19,-0.1864,-0.187,-0.1792,-0.1794,-0.1721,-0.1707,-0.1689,-0.1719,-0.1721,-0.1772,-0.186,-0.1868,-0.1965,-0.182,-0.1719,-0.1677,-0.1626,-0.1659,-0.1753,-0.1777,-0.1799,-0.1773,-0.158,-0.158,-0.1461,-0.146,-0.146]},{"header":{"parameterUnit":"m.s-1","parameterCategory":2,"la1":30.2991,"la2":30.254,"lo1":-89.0895,"lo2":-89.0444,"dy":0.0017,"dx":0.0017,"nx":28,"ny":28,"refTime":"2025-11-19T09:00:00:Z","depth":"0","parameterNumber":3,"parameterNumberName":"V-component_of_CURRENTS"},"data":[0,0,0,0,0,0,0,0,0,0,0,0,0,0,0,0,0,0,0,0,0,0,0,0,0,0,0,0,0,0,0,0,0,0,0,0,0,0,0,0,0,0,0,0,0,0,0,0,0,0,0,0,0,0,0,0,0,0,-0.0158,-0.0157,0,-0.0063,-0.0061,-0.006,0.0015,0.0016,0.0016,0.0016,0.0313,0.0321,0.0328,0,0,0,0,0,0,0,0,0,0,0,0,0,-0.0216,-0.0215,-0.0158,-0.0157,-0.0156,-0.0063,-0.0061,-0.0059,0.0015,0.0016,0.0016,0.0017,0.0311,0.032,0.0329,0,0,0,0,0,0,0,0,0,0,0,0,0,-0.0159,-0.0215,-0.0158,-0.011,-0.0106,-0.0063,-0.0061,-0.0059,0.0015,0.0016,0.0016,0.0017,0.0308,0.0319,0.033,0.0389,0,0,0.0365,0.037,0,0,0,0,0,0,0,0,-0.0163,-0.0157,-0.0118,-0.0114,-0.0108,-0.0038,0.0027,0.0099,0.0015,-0.0026,0.0016,0.0017,0.0211,0.0231,0.025,0.0403,0.0416,0.0366,0.0373,0.0377,0.0381,0,0,0,0,0,0,0,-0.0167,-0.016,-0.0116,-0.0118,-0.0111,-0.0074,-0.0066,0.0041,0.0095,-0.0023,-0.0018,-0.0014,0.0216,0.0239,0.0258,0.042,0.0365,0.0375,0.0382,0.0387,0.0626,0.0625,0,0,0,0,0,0,-0.019,-0.0164,-0.0119,-0.0113,-0.0139,-0.0074,-0.0064,-0.0058,0.009,0.011,-0.0015,-0.0011,0.0219,0.0245,0.0269,0.0317,0.0377,0.0388,0.0395,0.0626,0.0626,0.0625,0,0,0,0,0,0,-0.0192,-0.0187,-0.0123,-0.014,-0.013,-0.0075,-0.0068,-0.0057,-0.0035,0.0093,0.0118,-0.0005,0.0221,0.0253,0.0336,0.033,0.0393,0.0403,0.0627,0.0626,0.0625,0.0433,0,0,0,0,0,0,-0.0194,-0.0188,-0.0191,-0.0142,-0.013,-0.0107,-0.0068,-0.0055,-0.0035,-0.0029,0.011,0.0137,0.0224,0.0318,0.0347,0.0347,0.0412,0.0627,0.0626,0.0626,0.044,0.0426,0.0414,0,0,0,0,0,-0.0196,-0.0204,-0.0191,-0.0186,-0.0136,-0.0108,-0.0098,-0.0054,-0.0036,-0.0031,0.0046,0.0133,0.0335,0.0326,0.0361,0.0364,0.0628,0.0627,0.0626,0.0446,0.0429,0.0414,0,0,0,0,0,0,-0.023,-0.0196,-0.0181,-0.0178,-0.0152,-0.0097,-0.009,-0.0063,-0.0001,0.0009,0.0127,0.016,0.0225,0.0325,0.0313,0.0431,0.0497,0.0503,0.0349,0.0334,0.0321,0.0319,0.0422,0,0,0,0,0,-0.0242,-0.0239,-0.0202,-0.0201,-0.0191,-0.0143,-0.0127,-0.01,-0.0043,-0.0016,0.0072,0.0172,0.0249,0.0312,0.0397,0.0473,0.0547,0.05,0.0486,0.0474,0.0497,0.0557,0.0551,0.0622,0.0622,0.0622,0,0,-0.0256,-0.0238,-0.0236,-0.0209,-0.0182,-0.0175,-0.0131,-0.0114,-0.0104,0.0012,0.0058,0.0127,0.0254,0.0313,0.0356,0.04,0.0488,0.0473,0.0461,0.0492,0.0555,0.0548,0.0542,0.0621,0.0621,0.0621,0,0,-0.0289,-0.0267,-0.0278,-0.0261,-0.0235,-0.0203,-0.0205,-0.0158,-0.0131,-0.0085,-0.0015,0.0042,0.0183,0.0251,0.031,0.0288,0.0401,0.0322,0.0276,0.0331,0.0326,0.0322,0.0373,0.0376,0.0332,0.0331,0.0331,0,-0.0309,-0.0315,-0.0277,-0.0285,-0.0278,-0.0223,-0.0235,-0.0199,-0.0133,-0.0109,-0.0086,0.0065,0.0154,0.0229,0.0208,0.0259,0.0309,0.0314,0.0311,0.0309,0.0308,0.0363,0.0368,0.0322,0.0323,0.0324,0.0325,0,-0.0349,-0.0354,-0.036,-0.0351,-0.0336,-0.0337,-0.0292,-0.0269,-0.0232,-0.0191,-0.0127,-0.0032,0.0068,0.0088,0.0146,0.0187,0.0226,0.0264,0.0338,0.0289,0.035,0.0358,0.0308,0.0312,0.0315,0.0317,0,0,-0.0392,-0.0391,-0.0393,-0.0405,-0.0373,-0.0369,-0.0349,-0.0313,-0.0297,-0.0235,-0.0203,-0.0109,-0.006,0.001,0.008,0.013,0.0137,0.0188,0.0196,0.0219,0.0256,0.0305,0.032,0.0163,0.0164,0.0165,0.0287,0,-0.0436,-0.0476,-0.0453,-0.0482,-0.0499,-0.0446,-0.0433,-0.0391,-0.0338,-0.0292,-0.0199,-0.0139,-0.0086,-0.0051,0.0,0.0111,0.0157,0.0101,0.0323,0.033,0.0362,0.0331,0.0371,0.0486,0.0296,0.0298,0.0299,0,-0.0482,-0.0504,-0.0547,-0.0555,-0.0555,-0.0557,-0.0523,-0.0504,-0.0419,-0.0376,-0.0299,-0.0218,-0.0127,-0.0086,0.008,0.0039,0.0136,0.0215,0.0222,0.0354,0.0397,0.0517,0.051,0.0672,0.0314,0.0313,0.0312,0,-0.0541,-0.0568,-0.0608,-0.0611,-0.0607,-0.0608,-0.0594,-0.053,-0.0512,-0.0422,-0.0391,-0.027,-0.0202,-0.0072,0.0098,0.0088,0.0281,0.0293,0.0431,0.0435,0.0563,0.0577,0.0732,0.0407,0.0406,0.0406,0.0406,0,-0.06,-0.063,-0.0641,-0.0665,-0.0704,-0.0672,-0.0683,-0.0645,-0.0585,-0.0562,-0.0439,-0.0381,-0.0197,-0.0058,0.0086,0.0293,0.0279,0.0432,0.0475,0.0495,0.0501,0.0728,0.079,0.0411,0.041,0.0409,0.0408,0,-0.0658,-0.0664,-0.0715,-0.0731,-0.0737,-0.0764,-0.0757,-0.0757,-0.0688,-0.0649,-0.0623,-0.0462,-0.0273,-0.0075,0.0153,0.0282,0.0581,0.0548,0.0557,0.0598,0.0862,0.0911,0.1149,0.1244,0.0712,0.0714,0.0716,0,-0.0692,-0.0724,-0.0773,-0.0809,-0.0819,-0.0848,-0.0863,-0.0816,-0.0807,-0.069,-0.0673,-0.0485,-0.033,0.003,0.0293,0.0568,0.0688,0.0757,0.0748,0.0895,0.0982,0.1016,0.1081,0.0832,0.0835,0.0837,0.0838,0,-0.0754,-0.0768,-0.0811,-0.0889,-0.0926,-0.0962,-0.0973,-0.0983,-0.0912,-0.085,-0.0727,-0.059,-0.0225,0.0115,0.0475,0.0643,0.0883,0.0807,0.097,0.1103,0.1146,0.1251,0.0725,0.0857,0.0855,0.0853,0.0852,0.0852,-0.0788,-0.0839,-0.0895,-0.0965,-0.1014,-0.1057,-0.1077,-0.1063,-0.1032,-0.0917,-0.0778,-0.0534,-0.0035,0.0489,0.0683,0.11,0.1055,0.1222,0.1272,0.1296,0.1386,0.0894,0.1064,0.1063,0.1063,0.1062,0.1062,0,-0.083,-0.0886,-0.0964,-0.1043,-0.1105,-0.1108,-0.1133,-0.1117,-0.1072,-0.092,-0.0761,-0.0215,0.0281,0.0736,0.132,0.155,0.1598,0.1663,0.173,0.1776,0.1363,0.1366,0.1597,0.1597,0.1597,0.1597,0.1597,0.1596,-0.0853,-0.0935,-0.098,-0.1094,-0.1146,-0.119,-0.1198,-0.1148,-0.1036,-0.0755,-0.0455,-0.0209,0.0452,0.1389,0.1926,0.198,0.2169,0.2161,0.2256,0.1974,0.1936,0.19,0.192,0.2263,0.2264,0.2661,0.2665,0.2668]}],[{"header":{"parameterUnit":"m.s-1","parameterCategory":2,"la1":30.2991,"la2":30.254,"lo1":-89.0895,"lo2":-89.0444,"dy":0.0017,"dx":0.0017,"nx":28,"ny":28,"refTime":"2025-11-19T09:00:00:Z","depth":"2","parameterNumber":2,"parameterNumberName":"U-component_of_CURRENTS"},"data":[0,0,0,0,0,0,0,0,0,0,0,0,0,0,0,0,0,0,0,0,0,0,0,0,0,0,0,0,0,0,0,0,0,0,0,0,0,0,0,0,0,0,0,0,0,0,0,0,0,0,0,0,0,0,0,0,0,0,-0.2247,-0.2248,0,-0.2288,-0.2288,-0.2288,-0.2275,-0.2274,-0.2273,-0.2272,-0.2301,-0.2303,-0.2304,0,0,0,0,0,0,0,0,0,0,0,0,0,-0.2171,-0.2173,-0.2247,-0.2248,-0.2248,-0.2288,-0.2288,-0.2288,-0.2275,-0.2274,-0.2273,-0.2272,-0.2301,-0.2302,-0.2304,0,0,0,0,0,0,0,0,0,0,0,0,0,-0.2206,-0.2173,-0.2247,-0.2247,-0.2248,-0.2287,-0.2288,-0.2289,-0.2275,-0.2274,-0.2273,-0.2272,-0.23,-0.2302,-0.2304,-0.2341,0,0,-0.2311,-0.2312,0,0,0,0,0,0,0,0,-0.2204,-0.2209,-0.2247,-0.2247,-0.2248,-0.2276,-0.2272,-0.2306,-0.2275,-0.2263,-0.2272,-0.2271,-0.2293,-0.2296,-0.2305,-0.2342,-0.2344,-0.2311,-0.2313,-0.2314,-0.2314,0,0,0,0,0,0,0,-0.2202,-0.2207,-0.2262,-0.2247,-0.2248,-0.225,-0.2253,-0.2278,-0.2283,-0.2264,-0.2264,-0.2271,-0.2293,-0.2302,-0.2305,-0.2344,-0.2311,-0.2313,-0.2315,-0.2316,-0.2406,-0.2407,0,0,0,0,0,0,-0.22,-0.2205,-0.226,-0.2263,-0.2224,-0.2252,-0.2256,-0.2267,-0.2283,-0.2285,-0.2272,-0.227,-0.2299,-0.2303,-0.2306,-0.2335,-0.2314,-0.2316,-0.2317,-0.2405,-0.2406,-0.2407,0,0,0,0,0,0,-0.2199,-0.2205,-0.2259,-0.2235,-0.2243,-0.2255,-0.2267,-0.2269,-0.2276,-0.2289,-0.229,-0.2277,-0.2298,-0.2303,-0.233,-0.2336,-0.2317,-0.2319,-0.2403,-0.2405,-0.2407,-0.2403,0,0,0,0,0,0,-0.2196,-0.2204,-0.221,-0.2236,-0.2244,-0.2282,-0.2269,-0.227,-0.2283,-0.2281,-0.2295,-0.2296,-0.2298,-0.2326,-0.2332,-0.2339,-0.2321,-0.2402,-0.2404,-0.2406,-0.2402,-0.2404,-0.2406,0,0,0,0,0,-0.2194,-0.2206,-0.2211,-0.2217,-0.2252,-0.2283,-0.2288,-0.2291,-0.2284,-0.2292,-0.2302,-0.2295,-0.2343,-0.2329,-0.2335,-0.2343,-0.2401,-0.2404,-0.2406,-0.2401,-0.2404,-0.2406,0,0,0,0,0,0,-0.2175,-0.2207,-0.2212,-0.2233,-0.2257,-0.2281,-0.2289,-0.2296,-0.2311,-0.2308,-0.2313,-0.2316,-0.234,-0.2351,-0.2336,-0.2377,-0.237,-0.2374,-0.2364,-0.2367,-0.2369,-0.2367,-0.2322,0,0,0,0,0,-0.2176,-0.2191,-0.2224,-0.2239,-0.2253,-0.2273,-0.2285,-0.2292,-0.2311,-0.2315,-0.2326,-0.234,-0.2358,-0.2368,-0.2386,-0.2415,-0.2408,-0.2425,-0.2427,-0.2429,-0.2433,-0.2426,-0.2427,-0.2415,-0.2415,-0.2415,0,0,-0.2171,-0.2191,-0.2199,-0.2236,-0.2252,-0.228,-0.2276,-0.2299,-0.2319,-0.2318,-0.2343,-0.235,-0.2368,-0.2393,-0.2405,-0.24,-0.2429,-0.2432,-0.2433,-0.2436,-0.2428,-0.2429,-0.243,-0.2417,-0.2416,-0.2416,0,0,-0.2172,-0.219,-0.2205,-0.2231,-0.2264,-0.2283,-0.2291,-0.2322,-0.233,-0.2363,-0.2361,-0.2373,-0.2408,-0.2414,-0.2424,-0.2455,-0.2441,-0.2463,-0.2473,-0.2466,-0.2466,-0.2466,-0.2455,-0.2454,-0.2464,-0.2464,-0.2464,0,-0.2163,-0.219,-0.2213,-0.2241,-0.2261,-0.2285,-0.2311,-0.2333,-0.2366,-0.2376,-0.237,-0.2409,-0.2417,-0.2442,-0.2448,-0.2458,-0.2451,-0.2456,-0.2466,-0.2466,-0.2467,-0.2455,-0.2454,-0.2464,-0.2464,-0.2464,-0.2464,0,-0.2178,-0.2204,-0.2217,-0.2259,-0.2286,-0.2312,-0.235,-0.2373,-0.2386,-0.2402,-0.2427,-0.2437,-0.2456,-0.2461,-0.2464,-0.2476,-0.2468,-0.2465,-0.2452,-0.2467,-0.2454,-0.2453,-0.2465,-0.2464,-0.2464,-0.2464,0,0,-0.2141,-0.2213,-0.2215,-0.224,-0.2298,-0.232,-0.2363,-0.2402,-0.2422,-0.2444,-0.2464,-0.2485,-0.248,-0.2491,-0.2492,-0.2488,-0.2477,-0.2478,-0.2478,-0.2454,-0.2456,-0.2392,-0.2385,-0.247,-0.247,-0.247,-0.2444,0,-0.2141,-0.219,-0.223,-0.2274,-0.2303,-0.2348,-0.2385,-0.2424,-0.245,-0.2477,-0.2484,-0.2503,-0.2496,-0.2498,-0.2494,-0.2488,-0.2476,-0.2484,-0.2457,-0.2456,-0.2386,-0.2382,-0.2206,-0.2163,-0.2443,-0.2443,-0.2443,0,-0.2134,-0.2172,-0.2217,-0.2286,-0.2302,-0.2334,-0.2389,-0.2428,-0.2476,-0.2495,-0.2513,-0.2521,-0.253,-0.2514,-0.2501,-0.2506,-0.2481,-0.2468,-0.2466,-0.2408,-0.239,-0.2196,-0.215,-0.2441,-0.2441,-0.2441,-0.2441,0,-0.2084,-0.2157,-0.219,-0.2214,-0.2299,-0.2323,-0.2364,-0.2423,-0.2452,-0.25,-0.2517,-0.2534,-0.2535,-0.2519,-0.2495,-0.2497,-0.2469,-0.2468,-0.2385,-0.238,-0.2226,-0.2207,-0.2444,-0.2444,-0.2444,-0.2444,-0.2444,0,-0.2063,-0.2086,-0.2168,-0.2187,-0.2222,-0.2294,-0.2331,-0.2377,-0.2438,-0.2462,-0.2513,-0.2524,-0.2534,-0.2522,-0.2499,-0.2435,-0.2468,-0.2382,-0.2366,-0.2221,-0.2203,-0.2445,-0.2446,-0.2443,-0.2443,-0.2444,-0.2444,0,-0.1994,-0.2054,-0.2091,-0.2175,-0.2199,-0.2218,-0.2301,-0.2324,-0.24,-0.2431,-0.2445,-0.2508,-0.2495,-0.2492,-0.2465,-0.2425,-0.2383,-0.2347,-0.2175,-0.214,-0.23,-0.2301,-0.2256,-0.2254,-0.2252,-0.225,-0.2248,0,-0.1961,-0.1974,-0.2053,-0.2068,-0.2102,-0.215,-0.2179,-0.2279,-0.2308,-0.2408,-0.2409,-0.2437,-0.2421,-0.2375,-0.231,-0.2246,-0.2315,-0.2054,-0.2027,-0.229,-0.228,-0.2284,-0.2288,-0.1821,-0.1816,-0.1812,-0.1809,0,-0.1884,-0.1912,-0.1941,-0.1974,-0.2004,-0.2042,-0.2096,-0.2119,-0.2228,-0.2261,-0.2296,-0.23,-0.2275,-0.2137,-0.2073,-0.2013,-0.2055,-0.1971,-0.2273,-0.1903,-0.1878,-0.1869,-0.1887,-0.1773,-0.1777,-0.1779,-0.1781,-0.1783,-0.1807,-0.1803,-0.184,-0.1857,-0.1891,-0.1909,-0.1895,-0.1964,-0.199,-0.2014,-0.2113,-0.2063,-0.2056,-0.1868,-0.1772,-0.1695,-0.1836,-0.1754,-0.1766,-0.1783,-0.1744,-0.1718,-0.1575,-0.1577,-0.1579,-0.1581,-0.1583,0,-0.1699,-0.171,-0.1719,-0.1737,-0.1716,-0.1781,-0.181,-0.1774,-0.1751,-0.1806,-0.1811,-0.1648,-0.1564,-0.1561,-0.1388,-0.1357,-0.1338,-0.13,-0.1277,-0.1313,-0.1345,-0.1285,-0.0993,-0.0991,-0.099,-0.0988,0,0,-0.1643,-0.1613,-0.1618,-0.155,-0.1556,-0.1489,-0.1473,-0.1442,-0.1446,-0.1391,-0.1369,-0.1495,-0.1527,-0.1271,-0.1203,-0.1072,-0.1179,-0.1014,-0.1487,-0.1496,-0.1526,-0.1605,-0.1553,0,0,0,0,0]},{"header":{"parameterUnit":"m.s-1","parameterCategory":2,"la1":30.2991,"la2":30.254,"lo1":-89.0895,"lo2":-89.0444,"dy":0.0017,"dx":0.0017,"nx":28,"ny":28,"refTime":"2025-11-19T09:00:00:Z","depth":"2","parameterNumber":3,"parameterNumberName":"V-component_of_CURRENTS"},"data":[0,0,0,0,0,0,0,0,0,0,0,0,0,0,0,0,0,0,0,0,0,0,0,0,0,0,0,0,0,0,0,0,0,0,0,0,0,0,0,0,0,0,0,0,0,0,0,0,0,0,0,0,0,0,0,0,0,0,-0.0229,-0.0229,0,-0.0152,-0.0151,-0.015,-0.0085,-0.0084,-0.0084,-0.0083,0.0077,0.0081,0.0085,0,0,0,0,0,0,0,0,0,0,0,0,0,-0.0272,-0.0272,-0.0229,-0.0229,-0.0228,-0.0152,-0.0151,-0.0149,-0.0085,-0.0084,-0.0084,-0.0083,0.0076,0.008,0.0085,0,0,0,0,0,0,0,0,0,0,0,0,0,-0.0227,-0.0271,-0.0229,-0.0189,-0.0185,-0.0152,-0.0151,-0.0149,-0.0085,-0.0084,-0.0084,-0.0083,0.0074,0.008,0.0086,0.0109,0,0,0.0103,0.0106,0,0,0,0,0,0,0,0,-0.023,-0.0225,-0.0195,-0.0192,-0.0187,-0.013,-0.0107,-0.006,-0.0085,-0.0119,-0.0083,-0.0083,0.0013,0.0024,0.004,0.0116,0.0123,0.0104,0.0107,0.011,0.0112,0,0,0,0,0,0,0,-0.0233,-0.0228,-0.0195,-0.0195,-0.019,-0.0158,-0.0151,-0.0098,-0.0054,-0.0116,-0.0112,-0.0109,0.0016,0.0034,0.0045,0.0126,0.0104,0.0109,0.0112,0.0115,0.0232,0.0232,0,0,0,0,0,0,-0.0252,-0.0231,-0.0198,-0.0193,-0.0211,-0.0158,-0.015,-0.0146,-0.0056,-0.0043,-0.0109,-0.0106,0.0024,0.0038,0.0051,0.0081,0.011,0.0115,0.0119,0.0233,0.0232,0.0232,0,0,0,0,0,0,-0.0253,-0.025,-0.0201,-0.0213,-0.0205,-0.0159,-0.0155,-0.0145,-0.0127,-0.0052,-0.0037,-0.0101,0.0025,0.0042,0.009,0.0088,0.0118,0.0123,0.0233,0.0233,0.0232,0.0145,0,0,0,0,0,0,-0.0255,-0.0251,-0.0254,-0.0214,-0.0205,-0.0189,-0.0155,-0.0144,-0.0127,-0.0122,-0.004,-0.0024,0.0027,0.0081,0.0095,0.0097,0.0128,0.0234,0.0233,0.0232,0.0148,0.0141,0.0135,0,0,0,0,0,-0.0257,-0.0266,-0.0255,-0.0251,-0.0212,-0.019,-0.0182,-0.0144,-0.0128,-0.0124,-0.0073,-0.0027,0.0087,0.0085,0.0103,0.0105,0.0234,0.0233,0.0232,0.0151,0.0142,0.0135,0,0,0,0,0,0,-0.0286,-0.026,-0.0246,-0.0247,-0.0225,-0.018,-0.0175,-0.0151,-0.0108,-0.0101,-0.003,-0.0011,0.0029,0.0077,0.0073,0.0137,0.0168,0.017,0.01,0.0093,0.0086,0.0076,0.0133,0,0,0,0,0,-0.0297,-0.0297,-0.0266,-0.0267,-0.0259,-0.0219,-0.0205,-0.0182,-0.0142,-0.0122,-0.0068,-0.001,0.0039,0.0072,0.0121,0.0159,0.0207,0.0172,0.0166,0.016,0.0163,0.0225,0.0224,0.0229,0.0229,0.0229,0,0,-0.031,-0.0296,-0.0295,-0.0274,-0.0252,-0.0247,-0.0208,-0.0195,-0.0186,-0.011,-0.0079,-0.003,0.0042,0.008,0.0103,0.0122,0.0181,0.0159,0.0153,0.016,0.0224,0.0224,0.0223,0.0229,0.0229,0.0229,0,0,-0.034,-0.0323,-0.0334,-0.032,-0.0298,-0.0271,-0.0272,-0.0232,-0.0208,-0.0178,-0.0124,-0.0078,-0.0003,0.0047,0.0083,0.0074,0.0141,0.0088,0.0056,0.0115,0.0115,0.0116,0.0163,0.0169,0.009,0.0089,0.0089,0,-0.0357,-0.0365,-0.0334,-0.0341,-0.0336,-0.0288,-0.0298,-0.0267,-0.0217,-0.0196,-0.0179,-0.0073,-0.0017,0.0039,0.0032,0.0061,0.01,0.0076,0.0106,0.0108,0.0111,0.016,0.0167,0.0085,0.0085,0.0086,0.0086,0,-0.0394,-0.04,-0.0405,-0.0398,-0.0386,-0.0388,-0.0348,-0.0327,-0.0295,-0.0258,-0.0205,-0.0131,-0.0064,-0.0045,-0.0008,0.0035,0.0058,0.0085,0.0122,0.0105,0.0157,0.0167,0.0079,0.008,0.0082,0.0083,0,0,-0.0433,-0.0433,-0.0435,-0.0446,-0.0418,-0.0415,-0.0397,-0.0365,-0.035,-0.0294,-0.0264,-0.0187,-0.0143,-0.01,-0.0044,0.0006,0.0048,0.0044,0.0049,0.0085,0.017,0.0197,0.0211,0.0078,0.0079,0.008,0.0195,0,-0.0471,-0.0507,-0.0488,-0.0514,-0.0528,-0.0482,-0.0471,-0.0433,-0.0385,-0.0343,-0.0259,-0.021,-0.0163,-0.0134,-0.0077,0.002,0.0071,0.0014,0.0189,0.0194,0.0215,0.0222,0.0188,0.0289,0.0205,0.0207,0.0208,0,-0.0513,-0.0533,-0.0571,-0.0578,-0.0578,-0.058,-0.055,-0.0532,-0.0454,-0.0416,-0.0344,-0.0274,-0.0187,-0.0151,0.001,-0.003,0.006,0.0134,0.014,0.0206,0.0239,0.0298,0.0311,0.0224,0.0223,0.0222,0.0221,0,-0.0565,-0.0588,-0.0623,-0.0627,-0.0623,-0.0624,-0.0613,-0.0555,-0.054,-0.0456,-0.0428,-0.0312,-0.025,-0.0123,0.0031,0.0023,0.0207,0.0221,0.0331,0.0334,0.0362,0.0365,0.0332,0.0332,0.0332,0.0332,0.0331,0,-0.0616,-0.0643,-0.0653,-0.0675,-0.071,-0.0682,-0.0693,-0.0658,-0.0604,-0.0584,-0.047,-0.0418,-0.0241,-0.0112,0.0023,0.021,0.0209,0.0333,0.0371,0.0329,0.0327,0.0319,0.0316,0.0336,0.0335,0.0334,0.0334,0,-0.0668,-0.0673,-0.0718,-0.0733,-0.0739,-0.0764,-0.076,-0.0761,-0.0698,-0.0664,-0.0641,-0.0491,-0.0317,-0.0133,0.0083,0.02,0.0374,0.0439,0.0371,0.04,0.0461,0.0452,0.0574,0.0576,0.0578,0.0579,0.058,0,-0.0698,-0.0726,-0.0771,-0.0804,-0.0814,-0.0841,-0.0857,-0.0815,-0.0807,-0.0704,-0.0688,-0.0519,-0.0382,-0.0051,0.0179,0.0429,0.0429,0.0536,0.052,0.0463,0.0489,0.0477,0.0466,0.0519,0.0519,0.052,0.052,0,-0.0754,-0.0766,-0.0805,-0.0877,-0.0912,-0.0946,-0.0959,-0.0968,-0.0907,-0.0852,-0.0743,-0.0624,-0.0306,-0.0033,0.0285,0.0427,0.0493,0.0555,0.0535,0.0457,0.042,0.0441,0.0431,0.0525,0.0524,0.0524,0.0524,0.0523,-0.0785,-0.083,-0.0881,-0.0946,-0.0993,-0.1035,-0.1055,-0.1043,-0.1017,-0.0917,-0.0799,-0.0592,-0.0325,0.0129,0.0358,0.0569,0.0566,0.0619,0.0614,0.061,0.0577,0.0544,0.0666,0.0667,0.0667,0.0667,0.0667,0,-0.0826,-0.0876,-0.0946,-0.1019,-0.1078,-0.1083,-0.1108,-0.1094,-0.1056,-0.0928,-0.0793,-0.0494,-0.0175,0.0106,0.0443,0.0646,0.0626,0.0674,0.0606,0.0601,0.0596,0.0559,0.0646,0.0647,0.0647,0.0648,0,0,-0.0848,-0.0922,-0.0961,-0.1068,-0.1119,-0.1163,-0.1173,-0.1127,-0.1032,-0.0898,-0.074,-0.0518,-0.0168,0.0063,0.0318,0.0494,0.0495,0.0509,0.0506,0.039,0.0384,0.0545,0.0481,0,0,0,0,0]}],[{"header":{"parameterUnit":"m.s-1","parameterCategory":2,"la1":30.2991,"la2":30.254,"lo1":-89.0895,"lo2":-89.0444,"dy":0.0017,"dx":0.0017,"nx":28,"ny":28,"refTime":"2025-11-19T09:00:00:Z","depth":"4","parameterNumber":2,"parameterNumberName":"U-component_of_CURRENTS"},"data":[0,0,0,0,0,0,0,0,0,0,0,0,0,0,0,0,0,0,0,0,0,0,0,0,0,0,0,0,0,0,0,0,0,0,0,0,0,0,0,0,0,0,0,0,0,0,0,0,0,0,0,0,0,0,0,0,0,0,-0.1583,-0.1584,0,-0.1655,-0.1656,-0.1656,-0.1699,-0.1699,-0.1699,-0.1699,-0.171,-0.171,-0.171,0,0,0,0,0,0,0,0,0,0,0,0,0,-0.1493,-0.1495,-0.1583,-0.1584,-0.1585,-0.1655,-0.1656,-0.1657,-0.1699,-0.1699,-0.1699,-0.17,-0.171,-0.171,-0.171,0,0,0,0,0,0,0,0,0,0,0,0,0,-0.1544,-0.1495,-0.1583,-0.1615,-0.1619,-0.1655,-0.1656,-0.1657,-0.1698,-0.1699,-0.1699,-0.17,-0.171,-0.171,-0.171,-0.1702,0,0,-0.171,-0.171,0,0,0,0,0,0,0,0,-0.1541,-0.1547,-0.1609,-0.1613,-0.1617,-0.1669,-0.1628,-0.1669,-0.1698,-0.1667,-0.1699,-0.17,-0.1691,-0.1693,-0.1705,-0.1702,-0.1703,-0.171,-0.171,-0.171,-0.171,0,0,0,0,0,0,0,-0.1538,-0.1545,-0.161,-0.161,-0.1615,-0.163,-0.1638,-0.1636,-0.1674,-0.167,-0.1673,-0.1683,-0.1693,-0.1704,-0.1705,-0.1703,-0.171,-0.171,-0.171,-0.171,-0.1785,-0.1787,0,0,0,0,0,0,-0.153,-0.1541,-0.1608,-0.1613,-0.1581,-0.1632,-0.164,-0.1651,-0.1675,-0.168,-0.1683,-0.1685,-0.1704,-0.1705,-0.1705,-0.1769,-0.171,-0.171,-0.171,-0.1783,-0.1785,-0.1787,0,0,0,0,0,0,-0.1528,-0.1536,-0.1605,-0.1579,-0.1589,-0.1633,-0.1645,-0.1652,-0.169,-0.1686,-0.1689,-0.1716,-0.1705,-0.1705,-0.1743,-0.1767,-0.171,-0.171,-0.178,-0.1783,-0.1786,-0.185,0,0,0,0,0,0,-0.1525,-0.1534,-0.1553,-0.1579,-0.1591,-0.1643,-0.1645,-0.1654,-0.1695,-0.1699,-0.1715,-0.1715,-0.1705,-0.1743,-0.1743,-0.1766,-0.171,-0.1778,-0.1782,-0.1785,-0.1845,-0.1855,-0.1863,0,0,0,0,0,-0.1522,-0.1541,-0.1553,-0.1562,-0.161,-0.1644,-0.1652,-0.1683,-0.1696,-0.1718,-0.1742,-0.1716,-0.1766,-0.1745,-0.1744,-0.1768,-0.1776,-0.1781,-0.1785,-0.1842,-0.1853,-0.1863,0,0,0,0,0,0,-0.1513,-0.1548,-0.1562,-0.1592,-0.1624,-0.1652,-0.1678,-0.1698,-0.1735,-0.1746,-0.1741,-0.1744,-0.1785,-0.1773,-0.175,-0.1803,-0.1766,-0.1771,-0.181,-0.182,-0.1829,-0.1816,-0.171,0,0,0,0,0,-0.1519,-0.1543,-0.1576,-0.1603,-0.1621,-0.1655,-0.1678,-0.1701,-0.173,-0.1749,-0.1764,-0.1781,-0.1798,-0.1809,-0.1819,-0.1846,-0.1824,-0.1862,-0.1871,-0.1878,-0.1869,-0.1873,-0.1881,-0.1802,-0.1802,-0.1802,0,0,-0.1524,-0.1546,-0.1561,-0.1603,-0.1631,-0.1664,-0.1671,-0.1714,-0.1748,-0.1741,-0.18,-0.1813,-0.1815,-0.1852,-0.1867,-0.1846,-0.1893,-0.1884,-0.189,-0.1877,-0.1878,-0.1886,-0.1892,-0.1805,-0.1804,-0.1804,0,0,-0.1534,-0.1565,-0.1587,-0.1618,-0.1665,-0.1688,-0.1706,-0.1753,-0.1784,-0.1836,-0.1844,-0.1877,-0.1905,-0.1914,-0.1918,-0.198,-0.194,-0.1988,-0.2017,-0.2022,-0.2027,-0.2032,-0.2021,-0.2024,-0.199,-0.199,-0.199,0,-0.1541,-0.1571,-0.16,-0.1631,-0.1662,-0.1701,-0.1736,-0.1772,-0.1829,-0.1854,-0.1864,-0.1925,-0.1931,-0.1965,-0.1994,-0.1997,-0.1988,-0.1975,-0.2031,-0.2035,-0.2038,-0.2026,-0.2029,-0.1993,-0.1993,-0.1993,-0.1992,0,-0.1559,-0.1598,-0.1616,-0.1667,-0.1704,-0.1742,-0.1792,-0.1838,-0.188,-0.191,-0.1969,-0.1991,-0.2019,-0.2036,-0.2034,-0.207,-0.2051,-0.2041,-0.1998,-0.205,-0.2034,-0.2036,-0.1999,-0.1997,-0.1996,-0.1995,0,0,-0.1532,-0.1613,-0.1623,-0.1656,-0.1729,-0.1758,-0.1822,-0.1881,-0.1922,-0.1979,-0.2025,-0.2071,-0.2082,-0.2089,-0.2096,-0.2106,-0.2134,-0.209,-0.2088,-0.2068,-0.2136,-0.1997,-0.1985,-0.2136,-0.2136,-0.2137,-0.2116,0,-0.154,-0.1598,-0.1641,-0.1708,-0.1742,-0.1804,-0.1858,-0.1918,-0.1971,-0.2025,-0.2057,-0.2101,-0.2102,-0.2124,-0.2137,-0.2138,-0.2141,-0.214,-0.2098,-0.2096,-0.1956,-0.1982,-0.2139,-0.2117,-0.2118,-0.2118,-0.2118,0,-0.1534,-0.1579,-0.1643,-0.173,-0.1752,-0.1802,-0.189,-0.1943,-0.2021,-0.2061,-0.2107,-0.2131,-0.2168,-0.2158,-0.2173,-0.2174,-0.2158,-0.2151,-0.215,-0.1991,-0.1959,-0.2054,-0.212,-0.212,-0.212,-0.212,-0.2119,0,-0.1484,-0.1576,-0.1629,-0.166,-0.1764,-0.1812,-0.187,-0.1956,-0.2,-0.2082,-0.2115,-0.2161,-0.2185,-0.2185,-0.2176,-0.2181,-0.2171,-0.2173,-0.2028,-0.2018,-0.2121,-0.2116,-0.2167,-0.2167,-0.2167,-0.2167,-0.2167,0,-0.1457,-0.1503,-0.1616,-0.1645,-0.171,-0.1794,-0.1865,-0.1928,-0.2013,-0.2048,-0.2127,-0.2144,-0.2193,-0.2195,-0.2182,-0.2097,-0.2173,-0.2022,-0.2,-0.2151,-0.215,-0.2122,-0.2117,-0.2166,-0.2166,-0.2166,-0.2167,0,-0.1386,-0.1465,-0.1529,-0.1648,-0.1688,-0.1734,-0.1851,-0.1889,-0.1988,-0.2034,-0.206,-0.2137,-0.2133,-0.2153,-0.2147,-0.208,-0.2032,-0.1981,-0.2133,-0.2122,-0.1877,-0.1876,-0.1817,-0.1812,-0.1808,-0.1804,-0.1801,0,-0.1351,-0.138,-0.151,-0.1545,-0.1604,-0.1689,-0.1736,-0.1856,-0.1889,-0.2004,-0.2002,-0.2048,-0.2076,-0.1951,-0.1995,-0.1942,-0.1919,-0.1881,-0.1883,-0.1855,-0.184,-0.1846,-0.1851,-0.1794,-0.1793,-0.1791,-0.179,0,-0.1276,-0.1337,-0.1389,-0.1462,-0.1525,-0.1583,-0.1662,-0.1672,-0.1792,-0.1899,-0.1884,-0.1875,-0.1863,-0.185,-0.1812,-0.1782,-0.1902,-0.1835,-0.1844,-0.1846,-0.1826,-0.1817,-0.1827,-0.1775,-0.1777,-0.1779,-0.178,0,-0.1217,-0.1232,-0.1306,-0.1354,-0.1426,-0.1446,-0.151,-0.1542,-0.1592,-0.172,-0.1707,-0.1762,-0.1837,-0.1765,-0.1737,-0.1687,-0.1666,-0.1612,-0.1633,-0.165,-0.1604,-0.1555,-0.1389,0,0,0,0,0,-0.1147,-0.1151,-0.1188,-0.1237,-0.1299,-0.1339,-0.1439,-0.1505,-0.162,-0.1558,-0.1629,-0.161,-0.1574,-0.161,-0.1521,-0.1662,-0.1673,-0.1552,-0.1622,-0.1691,-0.1708,-0.1669,0,0,0,0,0,0,-0.1101,-0.1136,-0.1146,-0.1119,-0.1124,-0.118,-0.1235,-0.1322,-0.1301,-0.1422,-0.1409,-0.1501,-0.1489,-0.1588,-0.1482,-0.149,-0.1499,-0.1595,-0.159,-0.1681,-0.1697,-0.1711,-0.1676,0,0,0,0,0]},{"header":{"parameterUnit":"m.s-1","parameterCategory":2,"la1":30.2991,"la2":30.254,"lo1":-89.0895,"lo2":-89.0444,"dy":0.0017,"dx":0.0017,"nx":28,"ny":28,"refTime":"2025-11-19T09:00:00:Z","depth":"4","parameterNumber":3,"parameterNumberName":"V-component_of_CURRENTS"},"data":[0,0,0,0,0,0,0,0,0,0,0,0,0,0,0,0,0,0,0,0,0,0,0,0,0,0,0,0,0,0,0,0,0,0,0,0,0,0,0,0,0,0,0,0,0,0,0,0,0,0,0,0,0,0,0,0,0,0,-0.0199,-0.0199,0,-0.0153,-0.0153,-0.0152,-0.011,-0.0109,-0.0109,-0.0109,-0.0038,-0.0037,-0.0035,0,0,0,0,0,0,0,0,0,0,0,0,0,-0.0215,-0.0215,-0.0199,-0.0199,-0.0198,-0.0153,-0.0153,-0.0152,-0.011,-0.0109,-0.0109,-0.0109,-0.0039,-0.0037,-0.0035,0,0,0,0,0,0,0,0,0,0,0,0,0,-0.0191,-0.0215,-0.0199,-0.0173,-0.0171,-0.0154,-0.0152,-0.0151,-0.011,-0.0109,-0.0109,-0.0108,-0.0039,-0.0037,-0.0035,-0.003,0,0,-0.0027,-0.0026,0,0,0,0,0,0,0,0,-0.0192,-0.019,-0.0177,-0.0175,-0.0172,-0.0138,-0.0133,-0.011,-0.011,-0.0131,-0.0109,-0.0108,-0.0071,-0.0066,-0.0056,-0.0026,-0.0023,-0.0027,-0.0026,-0.0025,-0.0024,0,0,0,0,0,0,0,-0.0194,-0.0192,-0.0179,-0.0177,-0.0174,-0.0153,-0.0149,-0.0128,-0.0102,-0.0129,-0.0126,-0.0125,-0.0069,-0.0058,-0.0054,-0.0022,-0.0027,-0.0025,-0.0024,-0.0023,0.003,0.003,0,0,0,0,0,0,-0.0206,-0.0194,-0.018,-0.0178,-0.0184,-0.0153,-0.0148,-0.0148,-0.0103,-0.0096,-0.0125,-0.0123,-0.0063,-0.0057,-0.0051,-0.0035,-0.0025,-0.0023,-0.0021,0.003,0.003,0.003,0,0,0,0,0,0,-0.0207,-0.0206,-0.0182,-0.0186,-0.0182,-0.0154,-0.0153,-0.0147,-0.0138,-0.0101,-0.0093,-0.0122,-0.0062,-0.0055,-0.0031,-0.0032,-0.0021,-0.0019,0.003,0.003,0.003,-0.0007,0,0,0,0,0,0,-0.0208,-0.0206,-0.0212,-0.0187,-0.0182,-0.0177,-0.0154,-0.0147,-0.0138,-0.0135,-0.0095,-0.0088,-0.0061,-0.0035,-0.0029,-0.0029,-0.0017,0.003,0.003,0.003,-0.0005,-0.0008,-0.001,0,0,0,0,0,-0.0208,-0.0219,-0.0212,-0.0211,-0.019,-0.0178,-0.0173,-0.015,-0.0139,-0.0138,-0.0107,-0.0089,-0.003,-0.0033,-0.0026,-0.0025,0.003,0.003,0.003,-0.0004,-0.0008,-0.001,0,0,0,0,0,0,-0.0228,-0.0215,-0.0207,-0.0213,-0.02,-0.0172,-0.0171,-0.0155,-0.0131,-0.0128,-0.0089,-0.008,-0.0059,-0.0039,-0.0042,-0.0009,0.0003,0.0004,-0.0026,-0.0029,-0.0031,-0.0043,-0.0016,0,0,0,0,0,-0.0237,-0.0242,-0.0223,-0.0228,-0.0224,-0.0199,-0.0192,-0.0177,-0.0153,-0.0142,-0.0113,-0.0082,-0.0054,-0.0039,-0.0014,0.0002,0.0035,0.0008,0.0005,0.0003,-0.0002,0.0056,0.0058,0.003,0.003,0.003,0,0,-0.0247,-0.0241,-0.0243,-0.0233,-0.022,-0.022,-0.0193,-0.0187,-0.0183,-0.0139,-0.0123,-0.0091,-0.0052,-0.0031,-0.002,-0.0013,0.0028,0.0003,0.0001,-0.0003,0.0056,0.0059,0.0061,0.003,0.003,0.003,0,0,-0.0271,-0.0264,-0.0275,-0.0268,-0.0256,-0.0239,-0.0241,-0.0216,-0.0201,-0.0185,-0.0148,-0.0115,-0.0082,-0.0045,-0.0024,-0.0025,0.0013,-0.0021,-0.0041,0.0014,0.0017,0.002,0.0062,0.0069,-0.0021,-0.0021,-0.0022,0,-0.0285,-0.0295,-0.0276,-0.0284,-0.0284,-0.0252,-0.0262,-0.0242,-0.0212,-0.0199,-0.0188,-0.0119,-0.0086,-0.0047,-0.0046,-0.003,0.0001,-0.0035,0.0012,0.0015,0.0019,0.0061,0.0069,-0.0023,-0.0023,-0.0023,-0.0023,0,-0.0313,-0.0323,-0.0329,-0.0329,-0.0324,-0.0328,-0.0303,-0.0291,-0.0269,-0.0244,-0.0205,-0.0153,-0.0111,-0.0094,-0.0072,-0.0031,-0.0017,0.0002,0.0018,0.002,0.0064,0.0073,-0.0026,-0.0025,-0.0025,-0.0024,0,0,-0.034,-0.0349,-0.0352,-0.0363,-0.035,-0.0351,-0.0341,-0.0321,-0.0312,-0.0271,-0.025,-0.0192,-0.0158,-0.0132,-0.009,-0.0044,0.001,-0.0018,-0.0014,0.0021,0.0125,0.0104,0.0112,0.0038,0.004,0.0041,0.0144,0,-0.0369,-0.0401,-0.0392,-0.0418,-0.0431,-0.0403,-0.0399,-0.0375,-0.0342,-0.0312,-0.0245,-0.021,-0.0173,-0.0152,-0.0097,-0.0017,0.0033,-0.002,0.012,0.0123,0.0103,0.0121,0.0045,0.0151,0.0153,0.0154,0.0155,0,-0.0398,-0.0418,-0.0453,-0.0468,-0.047,-0.0479,-0.0465,-0.0456,-0.0399,-0.0371,-0.0315,-0.0262,-0.0186,-0.0157,-0.0013,-0.005,0.0029,0.0093,0.0099,0.0098,0.0119,0.0151,0.0173,0.0171,0.017,0.0169,0.0168,0,-0.0431,-0.0459,-0.0492,-0.0498,-0.0506,-0.0515,-0.0514,-0.0476,-0.0468,-0.0406,-0.0385,-0.0287,-0.0238,-0.0123,0.0006,0.0001,0.0162,0.0178,0.0236,0.0236,0.024,0.0236,0.0281,0.0281,0.0281,0.028,0.028,0,-0.0462,-0.049,-0.0515,-0.0535,-0.0573,-0.056,-0.0579,-0.0558,-0.0523,-0.051,-0.042,-0.038,-0.0227,-0.0118,0.0001,0.0143,0.0167,0.0234,0.0264,0.0221,0.0214,0.0247,0.0241,0.0284,0.0283,0.0283,0.0282,0,-0.049,-0.0506,-0.0551,-0.0579,-0.0593,-0.062,-0.0638,-0.0642,-0.0601,-0.0579,-0.0561,-0.0442,-0.0299,-0.0144,0.0046,0.0129,0.0272,0.0317,0.0251,0.0275,0.0308,0.03,0.0392,0.0393,0.0393,0.0393,0.0393,0,-0.0506,-0.0532,-0.0592,-0.0628,-0.0646,-0.0684,-0.0707,-0.0687,-0.0683,-0.0612,-0.0597,-0.0467,-0.0373,-0.0113,0.0042,0.0265,0.0293,0.0359,0.0339,0.0302,0.0322,0.0313,0.0304,0.0393,0.0393,0.0393,0.0393,0,-0.0535,-0.056,-0.0598,-0.0675,-0.0719,-0.0759,-0.0783,-0.0786,-0.0749,-0.0717,-0.0611,-0.0474,-0.0316,-0.012,0.0049,0.021,0.0311,0.0361,0.0362,0.0344,0.0304,0.0322,0.0313,0.0394,0.0394,0.0394,0.0394,0,-0.0553,-0.0591,-0.0647,-0.0709,-0.0773,-0.081,-0.0821,-0.0799,-0.0783,-0.0695,-0.0663,-0.048,-0.0374,-0.0148,0.0012,0.0161,0.0196,0.0236,0.0244,0.0245,0.0165,0.0091,0.0143,0,0,0,0,0,-0.0566,-0.0611,-0.0677,-0.0744,-0.0807,-0.0836,-0.0859,-0.0853,-0.0819,-0.075,-0.0701,-0.0547,-0.0303,-0.0191,-0.0044,0.0001,0.0207,0.0175,0.0253,0.0397,0.0396,0.0325,0,0,0,0,0,0,-0.0577,-0.0641,-0.0676,-0.0756,-0.0804,-0.0861,-0.0876,-0.0854,-0.0799,-0.0746,-0.0609,-0.0527,-0.0284,-0.0386,-0.0046,-0.0001,0.0064,0.0296,0.0299,0.0397,0.0397,0.0396,0.0323,0,0,0,0,0]}]]